Language: 


Des rapports , des résumés tant et plus, au choix de chacun....


Données Historiques de Météogheer
Journalier Rapport pour Février 23, 2018 Unitée:  Métrique    Impériale   Les deux
Suivant Jour »
Journalier Hebdomadaire Mensuel Annuel Sur mesure
  Max: Min: Moyenne:
Température: 4.8 °C -2.0 °C 0.8 °C
Point de rosée: -3.0 °C -8.0 °C -5.7 °C
Humidité: 80% 45% 63%
Vent: 27.7km/h 0.0km/h 12.2km/h
Rafales: 29.9km/h - -
Vent- - ENE
Pression: 1020.9 hPa 1016.8 hPa -
Pluie: 0.0 mm    
Historical Graphs
 
 
Données tabulaires pour Février 23, 2018
Heure Température Point de rosée Pression Vent Vent Rafales Humidité Pluie Taux (Horaire) Conditions
00:01 0.5 °C -4.0 °C 1020.9 hPa ENE 10.5 km/h 20.1 km/h 69% 0.0 mm
00:06 0.5 °C -4.0 °C 1020.9 hPa ENE 11.6 km/h 20.1 km/h 69% 0.0 mm
00:11 0.5 °C -4.0 °C 1020.9 hPa ENE 13.0 km/h 20.9 km/h 69% 0.0 mm
00:16 0.4 °C -5.0 °C 1020.9 hPa ENE 11.9 km/h 20.9 km/h 69% 0.0 mm
00:21 0.3 °C -5.0 °C 1020.9 hPa NE 9.0 km/h 13.0 km/h 69% 0.0 mm
00:26 0.3 °C -4.0 °C 1020.9 hPa ENE 13.0 km/h 13.7 km/h 70% 0.0 mm
00:31 0.3 °C -4.0 °C 1020.9 hPa ENE 11.9 km/h 13.7 km/h 70% 0.0 mm
00:36 0.2 °C -5.0 °C 1020.9 hPa ENE 9.3 km/h 16.6 km/h 70% 0.0 mm
00:41 0.1 °C -5.0 °C 1020.9 hPa NNE 9.7 km/h 16.6 km/h 70% 0.0 mm
00:46 0.1 °C -4.0 °C 1020.9 hPa East 9.3 km/h 15.8 km/h 71% 0.0 mm
00:51 0.1 °C -4.0 °C 1020.9 hPa ENE 12.6 km/h 15.8 km/h 71% 0.0 mm
00:56 0.1 °C -4.0 °C 1020.9 hPa NE 9.0 km/h 16.9 km/h 71% 0.0 mm
01:01 0.1 °C -4.0 °C 1019.9 hPa ENE 8.7 km/h 16.9 km/h 71% 0.0 mm
01:06 0.0 °C -5.0 °C 1019.9 hPa NE 9.0 km/h 14.0 km/h 71% 0.0 mm
01:11 -0.1 °C -5.0 °C 1019.9 hPa ENE 10.1 km/h 14.0 km/h 71% 0.0 mm
01:16 -0.1 °C -5.0 °C 1019.9 hPa NE 8.7 km/h 13.0 km/h 71% 0.0 mm
01:21 -0.3 °C -5.0 °C 1019.9 hPa ENE 5.8 km/h 12.2 km/h 72% 0.0 mm
01:26 -0.3 °C -5.0 °C 1019.9 hPa ENE 12.2 km/h 13.7 km/h 72% 0.0 mm
01:31 -0.3 °C -5.0 °C 1019.9 hPa ENE 6.4 km/h 13.7 km/h 72% 0.0 mm
01:36 -0.4 °C -5.0 °C 1019.9 hPa NE 8.7 km/h 13.0 km/h 72% 0.0 mm
01:42 -0.5 °C -6.0 °C 1019.9 hPa NE 6.1 km/h 12.2 km/h 73% 0.0 mm
01:47 -0.5 °C -6.0 °C 1019.9 hPa NNE 10.5 km/h 14.8 km/h 73% 0.0 mm
01:52 -0.5 °C -6.0 °C 1019.9 hPa NE 9.7 km/h 14.8 km/h 73% 0.0 mm
01:57 -0.5 °C -6.0 °C 1019.9 hPa NE 11.9 km/h 14.0 km/h 73% 0.0 mm
02:02 -0.5 °C -6.0 °C 1019.9 hPa NNE 11.9 km/h 14.3 km/h 73% 0.0 mm
02:07 -0.5 °C -5.0 °C 1019.9 hPa NE 11.6 km/h 14.3 km/h 74% 0.0 mm
02:12 -0.5 °C -5.0 °C 1019.9 hPa NNE 9.7 km/h 16.9 km/h 74% 0.0 mm
02:17 -0.7 °C -6.0 °C 1019.9 hPa NNE 8.7 km/h 16.9 km/h 73% 0.0 mm
02:22 -0.8 °C -6.0 °C 1019.9 hPa NNE 9.0 km/h 10.5 km/h 73% 0.0 mm
02:27 -0.9 °C -6.0 °C 1019.9 hPa NE 11.9 km/h 11.9 km/h 74% 0.0 mm
02:32 -0.9 °C -6.0 °C 1019.9 hPa NE 10.5 km/h 11.9 km/h 74% 0.0 mm
02:37 -1.0 °C -5.0 °C 1019.9 hPa NE 7.9 km/h 12.2 km/h 75% 0.0 mm
02:42 -1.0 °C -5.0 °C 1019.9 hPa NE 11.9 km/h 14.0 km/h 75% 0.0 mm
02:47 -1.0 °C -5.0 °C 1019.9 hPa NNE 13.0 km/h 18.0 km/h 76% 0.0 mm
02:57 -1.0 °C -5.0 °C 1019.9 hPa NE 12.2 km/h 15.1 km/h 76% 0.0 mm
03:02 -1.0 °C -5.0 °C 1018.8 hPa NE 13.7 km/h 15.1 km/h 75% 0.0 mm
03:07 -1.1 °C -5.0 °C 1018.8 hPa NE 9.7 km/h 13.7 km/h 75% 0.0 mm
03:12 -1.2 °C -6.0 °C 1018.8 hPa NNE 10.8 km/h 13.7 km/h 75% 0.0 mm
03:17 -1.2 °C -6.0 °C 1018.8 hPa ENE 10.1 km/h 13.7 km/h 76% 0.0 mm
03:22 -1.2 °C -6.0 °C 1018.8 hPa North 9.7 km/h 13.7 km/h 76% 0.0 mm
03:27 -1.3 °C -6.0 °C 1018.8 hPa NNE 9.0 km/h 14.0 km/h 76% 0.0 mm
03:32 -1.3 °C -6.0 °C 1018.8 hPa NNE 12.6 km/h 14.0 km/h 76% 0.0 mm
03:37 -1.4 °C -6.0 °C 1018.8 hPa NNE 6.4 km/h 14.0 km/h 76% 0.0 mm
03:42 -1.4 °C -6.0 °C 1018.8 hPa NE 12.2 km/h 13.7 km/h 76% 0.0 mm
03:47 -1.4 °C -5.0 °C 1018.2 hPa NE 17.7 km/h 17.7 km/h 77% 0.0 mm
03:53 -1.3 °C -6.0 °C 1018.2 hPa ENE 11.9 km/h 19.5 km/h 76% 0.0 mm
03:58 -1.3 °C -6.0 °C 1018.2 hPa NE 12.2 km/h 19.5 km/h 76% 0.0 mm
04:03 -1.3 °C -6.0 °C 1018.8 hPa NNE 11.9 km/h 15.4 km/h 76% 0.0 mm
04:08 -1.2 °C -6.0 °C 1018.8 hPa NE 12.2 km/h 15.4 km/h 75% 0.0 mm
04:13 -1.2 °C -6.0 °C 1018.8 hPa ENE 13.0 km/h 14.8 km/h 75% 0.0 mm
04:18 -1.2 °C -6.0 °C 1018.8 hPa ENE 13.7 km/h 15.8 km/h 75% 0.0 mm
04:23 -1.2 °C -6.0 °C 1018.8 hPa NE 11.9 km/h 15.8 km/h 75% 0.0 mm
04:28 -1.3 °C -6.0 °C 1018.8 hPa East 9.3 km/h 14.0 km/h 75% 0.0 mm
04:33 -1.3 °C -6.0 °C 1018.8 hPa NE 11.6 km/h 14.0 km/h 75% 0.0 mm
04:38 -1.3 °C -6.0 °C 1018.8 hPa NE 10.5 km/h 14.0 km/h 75% 0.0 mm
04:43 -1.4 °C -6.0 °C 1018.8 hPa NNE 10.5 km/h 14.0 km/h 75% 0.0 mm
04:48 -1.4 °C -6.0 °C 1018.8 hPa ENE 7.6 km/h 14.0 km/h 75% 0.0 mm
04:53 -1.4 °C -6.0 °C 1018.8 hPa ENE 12.6 km/h 14.0 km/h 75% 0.0 mm
04:58 -1.4 °C -6.0 °C 1018.8 hPa NE 9.0 km/h 13.0 km/h 75% 0.0 mm
05:03 -1.4 °C -6.0 °C 1018.8 hPa ENE 11.6 km/h 13.0 km/h 75% 0.0 mm
05:08 -1.4 °C -6.0 °C 1018.8 hPa NE 13.7 km/h 15.8 km/h 75% 0.0 mm
05:13 -1.5 °C -6.0 °C 1018.8 hPa NE 12.6 km/h 15.8 km/h 75% 0.0 mm
05:18 -1.5 °C -6.0 °C 1018.2 hPa East 12.2 km/h 13.0 km/h 75% 0.0 mm
05:23 -1.5 °C -6.0 °C 1018.2 hPa ENE 7.9 km/h 12.6 km/h 75% 0.0 mm
05:28 -1.5 °C -6.0 °C 1018.2 hPa ENE 9.0 km/h 13.7 km/h 75% 0.0 mm
05:33 -1.6 °C -6.0 °C 1018.8 hPa ENE 13.7 km/h 13.7 km/h 75% 0.0 mm
05:38 -1.6 °C -6.0 °C 1018.8 hPa NE 8.7 km/h 13.7 km/h 75% 0.0 mm
05:43 -1.6 °C -6.0 °C 1018.8 hPa ENE 8.7 km/h 13.7 km/h 76% 0.0 mm
05:48 -1.7 °C -6.0 °C 1018.2 hPa ENE 9.0 km/h 12.6 km/h 76% 0.0 mm
05:53 -1.7 °C -6.0 °C 1018.2 hPa NE 9.7 km/h 11.9 km/h 76% 0.0 mm
05:58 -1.7 °C -6.0 °C 1018.2 hPa ENE 8.7 km/h 12.2 km/h 76% 0.0 mm
06:03 -1.7 °C -6.0 °C 1018.2 hPa NE 10.5 km/h 12.2 km/h 76% 0.0 mm
06:09 -1.7 °C -6.0 °C 1018.2 hPa ENE 9.3 km/h 14.0 km/h 76% 0.0 mm
06:14 -1.7 °C -6.0 °C 1018.2 hPa NE 13.0 km/h 14.0 km/h 76% 0.0 mm
06:19 -1.7 °C -6.0 °C 1018.8 hPa ENE 10.1 km/h 16.9 km/h 76% 0.0 mm
06:24 -1.7 °C -6.0 °C 1018.8 hPa ENE 6.4 km/h 16.9 km/h 76% 0.0 mm
06:29 -1.6 °C -6.0 °C 1018.8 hPa NE 15.1 km/h 15.8 km/h 76% 0.0 mm
06:34 -1.6 °C -6.0 °C 1018.8 hPa East 13.7 km/h 15.8 km/h 75% 0.0 mm
06:39 -1.6 °C -6.0 °C 1018.8 hPa NNE 9.0 km/h 15.1 km/h 75% 0.0 mm
06:44 -1.7 °C -6.0 °C 1018.8 hPa ENE 10.1 km/h 14.0 km/h 75% 0.0 mm
06:49 -1.7 °C -6.0 °C 1018.8 hPa NE 9.0 km/h 14.0 km/h 75% 0.0 mm
06:54 -1.7 °C -6.0 °C 1018.8 hPa ESE 10.1 km/h 13.7 km/h 75% 0.0 mm
06:59 -1.8 °C -6.0 °C 1018.2 hPa ENE 5.0 km/h 13.7 km/h 75% 0.0 mm
07:04 -1.8 °C -6.0 °C 1018.2 hPa ENE 6.4 km/h 13.7 km/h 75% 0.0 mm
07:09 -1.8 °C -6.0 °C 1018.2 hPa ENE 8.7 km/h 12.2 km/h 75% 0.0 mm
07:14 -1.9 °C -6.0 °C 1018.2 hPa East 9.3 km/h 12.2 km/h 75% 0.0 mm
07:19 -1.9 °C -6.0 °C 1018.2 hPa ENE 2.6 km/h 10.1 km/h 75% 0.0 mm
07:24 -1.9 °C -6.0 °C 1018.2 hPa Calm   10.5 km/h 75% 0.0 mm
07:29 -2.0 °C -6.0 °C 1018.8 hPa East 6.9 km/h 11.9 km/h 76% 0.0 mm
07:34 -2.0 °C -6.0 °C 1018.8 hPa NNE 7.9 km/h 11.9 km/h 76% 0.0 mm
07:39 -1.9 °C -6.0 °C 1018.8 hPa NNE 9.7 km/h 16.9 km/h 77% 0.0 mm
07:44 -1.9 °C -6.0 °C 1018.8 hPa NNE 13.0 km/h 16.9 km/h 77% 0.0 mm
07:49 -1.9 °C -6.0 °C 1018.8 hPa NE 9.7 km/h 13.0 km/h 77% 0.0 mm
07:54 -1.9 °C -6.0 °C 1018.8 hPa ENE 12.2 km/h 13.7 km/h 78% 0.0 mm
08:00 -1.9 °C -6.0 °C 1018.8 hPa NE 9.0 km/h 13.7 km/h 78% 0.0 mm
08:05 -1.9 °C -6.0 °C 1018.8 hPa ENE 12.6 km/h 12.6 km/h 78% 0.0 mm
08:10 -1.8 °C -6.0 °C 1018.8 hPa ENE 7.9 km/h 12.6 km/h 78% 0.0 mm
08:15 -1.7 °C -5.0 °C 1018.8 hPa NE 9.3 km/h 14.0 km/h 79% 0.0 mm
08:20 -1.6 °C -5.0 °C 1018.8 hPa ENE 9.3 km/h 14.0 km/h 79% 0.0 mm
08:25 -1.5 °C -5.0 °C 1018.8 hPa ENE 12.2 km/h 13.0 km/h 79% 0.0 mm
08:30 -1.4 °C -5.0 °C 1019.9 hPa NNE 7.9 km/h 12.2 km/h 79% 0.0 mm
08:35 -1.3 °C -5.0 °C 1019.9 hPa NE 11.1 km/h 13.7 km/h 79% 0.0 mm
08:40 -1.1 °C -5.0 °C 1019.9 hPa ENE 12.6 km/h 15.1 km/h 80% 0.0 mm
08:45 -1.0 °C -5.0 °C 1019.9 hPa NE 7.9 km/h 16.3 km/h 79% 0.0 mm
08:50 -0.9 °C -5.0 °C 1019.9 hPa NNE 7.6 km/h 16.3 km/h 79% 0.0 mm
08:55 -0.7 °C -5.0 °C 1019.9 hPa ENE 9.0 km/h 20.1 km/h 79% 0.0 mm
09:00 -0.6 °C -5.0 °C 1019.9 hPa ENE 13.0 km/h 20.1 km/h 78% 0.0 mm
09:06 -0.5 °C -5.0 °C 1019.9 hPa ENE 16.3 km/h 20.9 km/h 78% 0.0 mm
09:11 -0.3 °C -5.0 °C 1019.9 hPa NE 15.8 km/h 21.6 km/h 78% 0.0 mm
09:16 -0.2 °C -4.0 °C 1020.9 hPa NE 12.2 km/h 21.6 km/h 77% 0.0 mm
09:21 -0.1 °C -4.0 °C 1020.9 hPa NE 11.9 km/h 17.7 km/h 77% 0.0 mm
09:26 0.0 °C -4.0 °C 1020.9 hPa ENE 12.6 km/h 16.9 km/h 77% 0.0 mm
09:31 0.1 °C -3.0 °C 1020.9 hPa ENE 13.7 km/h 16.9 km/h 76% 0.0 mm
09:36 0.3 °C -3.0 °C 1020.9 hPa ENE 9.0 km/h 19.8 km/h 76% 0.0 mm
09:41 0.3 °C -3.0 °C 1020.9 hPa East 12.6 km/h 19.8 km/h 75% 0.0 mm
09:46 0.4 °C -3.0 °C 1020.9 hPa ENE 13.7 km/h 17.7 km/h 74% 0.0 mm
09:51 0.4 °C -3.0 °C 1020.9 hPa ENE 20.6 km/h 21.9 km/h 74% 0.0 mm
09:56 0.5 °C -3.0 °C 1020.9 hPa ENE 16.6 km/h 21.9 km/h 73% 0.0 mm
10:01 0.6 °C -3.0 °C 1020.9 hPa NE 14.0 km/h 20.9 km/h 73% 0.0 mm
10:06 0.8 °C -3.0 °C 1020.9 hPa ENE 14.0 km/h 17.7 km/h 72% 0.0 mm
10:11 0.9 °C -3.0 °C 1020.9 hPa ENE 14.0 km/h 19.1 km/h 71% 0.0 mm
10:17 0.9 °C -4.0 °C 1019.9 hPa ENE 9.7 km/h 19.1 km/h 70% 0.0 mm
10:21 1.1 °C -4.0 °C 1019.9 hPa ENE 13.0 km/h 17.7 km/h 70% 0.0 mm
10:27 1.2 °C -4.0 °C 1019.9 hPa East 13.0 km/h 19.8 km/h 68% 0.0 mm
10:32 1.3 °C -4.0 °C 1019.9 hPa NNE 15.8 km/h 19.8 km/h 66% 0.0 mm
10:37 1.4 °C -4.0 °C 1019.9 hPa East 14.0 km/h 19.1 km/h 65% 0.0 mm
10:42 1.6 °C -4.0 °C 1019.9 hPa ENE 16.9 km/h 20.6 km/h 66% 0.0 mm
10:47 1.6 °C -4.0 °C 1019.9 hPa ENE 16.6 km/h 20.9 km/h 64% 0.0 mm
10:52 1.7 °C -5.0 °C 1019.9 hPa ENE 13.7 km/h 23.3 km/h 63% 0.0 mm
10:57 1.7 °C -5.0 °C 1019.9 hPa ENE 12.2 km/h 23.3 km/h 62% 0.0 mm
11:02 1.9 °C -5.0 °C 1019.9 hPa ENE 12.6 km/h 25.6 km/h 62% 0.0 mm
11:07 2.1 °C -4.0 °C 1019.9 hPa ENE 11.1 km/h 25.6 km/h 62% 0.0 mm
11:12 2.2 °C -5.0 °C 1019.9 hPa ENE 16.6 km/h 19.5 km/h 61% 0.0 mm
11:17 2.3 °C -4.0 °C 1019.9 hPa ENE 16.6 km/h 16.6 km/h 60% 0.0 mm
11:22 2.4 °C -5.0 °C 1019.9 hPa ENE 9.7 km/h 21.2 km/h 59% 0.0 mm
11:27 2.4 °C -5.0 °C 1019.9 hPa ESE 10.5 km/h 21.2 km/h 58% 0.0 mm
11:32 2.5 °C -5.0 °C 1018.8 hPa ENE 17.2 km/h 23.3 km/h 57% 0.0 mm
11:37 2.6 °C -5.0 °C 1018.8 hPa NE 11.9 km/h 23.3 km/h 57% 0.0 mm
11:42 2.7 °C -5.0 °C 1018.8 hPa ENE 13.7 km/h 21.2 km/h 56% 0.0 mm
11:47 2.7 °C -5.0 °C 1018.8 hPa East 12.6 km/h 19.5 km/h 56% 0.0 mm
11:52 2.8 °C -5.0 °C 1018.8 hPa East 16.3 km/h 19.5 km/h 56% 0.0 mm
11:57 2.8 °C -5.0 °C 1018.8 hPa ESE 17.7 km/h 21.6 km/h 55% 0.0 mm
12:02 2.9 °C -5.0 °C 1018.8 hPa NE 15.8 km/h 21.6 km/h 54% 0.0 mm
12:07 3.0 °C -5.0 °C 1018.8 hPa East 13.0 km/h 20.9 km/h 55% 0.0 mm
12:12 3.1 °C -5.0 °C 1018.8 hPa East 15.1 km/h 20.9 km/h 55% 0.0 mm
12:17 3.2 °C -5.0 °C 1018.8 hPa ENE 22.7 km/h 22.7 km/h 54% 0.0 mm
12:22 3.3 °C -5.0 °C 1018.8 hPa NE 12.2 km/h 22.7 km/h 54% 0.0 mm
12:27 3.3 °C -5.0 °C 1018.8 hPa ENE 16.6 km/h 22.7 km/h 53% 0.0 mm
12:32 3.4 °C -5.0 °C 1018.8 hPa East 20.6 km/h 21.2 km/h 53% 0.0 mm
12:37 3.4 °C -5.0 °C 1018.8 hPa East 20.9 km/h 21.2 km/h 53% 0.0 mm
12:42 3.3 °C -5.0 °C 1018.8 hPa ESE 17.2 km/h 21.2 km/h 53% 0.0 mm
12:47 3.4 °C -5.0 °C 1018.8 hPa ENE 20.9 km/h 20.9 km/h 52% 0.0 mm
12:52 3.4 °C -5.0 °C 1018.8 hPa East 17.7 km/h 21.2 km/h 52% 0.0 mm
12:57 3.5 °C -5.0 °C 1018.8 hPa East 12.6 km/h 23.3 km/h 53% 0.0 mm
13:02 3.5 °C -5.0 °C 1018.8 hPa East 20.1 km/h 23.3 km/h 53% 0.0 mm
13:08 3.6 °C -5.0 °C 1018.8 hPa East 12.2 km/h 21.2 km/h 53% 0.0 mm
13:13 3.7 °C -5.0 °C 1018.8 hPa ESE 17.2 km/h 23.8 km/h 53% 0.0 mm
13:18 3.6 °C -5.0 °C 1018.8 hPa ENE 12.2 km/h 23.8 km/h 52% 0.0 mm
13:23 3.7 °C -5.0 °C 1018.8 hPa East 19.8 km/h 23.3 km/h 52% 0.0 mm
13:28 3.7 °C -5.0 °C 1018.8 hPa ENE 19.8 km/h 22.4 km/h 52% 0.0 mm
13:33 3.8 °C -5.0 °C 1018.8 hPa East 16.6 km/h 20.6 km/h 52% 0.0 mm
13:38 3.8 °C -5.0 °C 1018.8 hPa ENE 16.3 km/h 20.9 km/h 53% 0.0 mm
13:43 4.0 °C -5.0 °C 1018.8 hPa East 10.1 km/h 20.9 km/h 53% 0.0 mm
13:48 4.1 °C -5.0 °C 1018.8 hPa East 16.3 km/h 20.6 km/h 53% 0.0 mm
13:53 4.0 °C -5.0 °C 1018.8 hPa ENE 17.2 km/h 20.6 km/h 52% 0.0 mm
13:58 4.0 °C -5.0 °C 1018.8 hPa ENE 17.7 km/h 19.8 km/h 52% 0.0 mm
14:03 4.0 °C -5.0 °C 1018.8 hPa ENE 10.5 km/h 23.0 km/h 53% 0.0 mm
14:08 4.1 °C -5.0 °C 1018.8 hPa NE 10.1 km/h 29.9 km/h 53% 0.0 mm
14:14 4.1 °C -5.0 °C 1018.8 hPa ENE 19.8 km/h 29.9 km/h 53% 0.0 mm
14:24 4.1 °C -5.0 °C 1018.8 hPa ENE 7.6 km/h 21.2 km/h 52% 0.0 mm
14:29 4.2 °C -5.0 °C 1018.8 hPa ENE 15.4 km/h 20.9 km/h 52% 0.0 mm
14:34 4.3 °C -5.0 °C 1018.8 hPa ESE 11.9 km/h 20.9 km/h 52% 0.0 mm
14:36 4.4 °C -5.0 °C 1018.8 hPa NE 14.3 km/h 17.2 km/h 52% 0.0 mm
14:41 4.3 °C -5.0 °C 1018.8 hPa ESE 19.8 km/h 28.0 km/h 51% 0.0 mm
14:46 4.3 °C -5.0 °C 1018.2 hPa ENE 15.8 km/h 28.0 km/h 51% 0.0 mm
14:51 4.4 °C -5.0 °C 1018.2 hPa ENE 14.3 km/h 21.2 km/h 51% 0.0 mm
14:56 4.4 °C -5.0 °C 1018.2 hPa East 16.3 km/h 21.2 km/h 50% 0.0 mm
15:01 4.6 °C -5.0 °C 1018.2 hPa East 16.6 km/h 20.9 km/h 51% 0.0 mm
15:06 4.5 °C -5.0 °C 1018.2 hPa East 14.0 km/h 21.2 km/h 50% 0.0 mm
15:11 4.6 °C -5.0 °C 1018.2 hPa East 16.3 km/h 21.2 km/h 50% 0.0 mm
15:16 4.6 °C -5.0 °C 1018.2 hPa ENE 17.7 km/h 25.9 km/h 49% 0.0 mm
15:21 4.6 °C -5.0 °C 1018.2 hPa ENE 8.7 km/h 25.9 km/h 50% 0.0 mm
15:26 4.6 °C -5.0 °C 1018.2 hPa NE 17.2 km/h 23.3 km/h 50% 0.0 mm
15:31 4.6 °C -5.0 °C 1016.8 hPa ENE 15.1 km/h 20.6 km/h 49% 0.0 mm
15:36 4.6 °C -5.0 °C 1016.8 hPa NE 16.6 km/h 20.6 km/h 49% 0.0 mm
15:41 4.8 °C -5.0 °C 1016.8 hPa East 6.9 km/h 20.6 km/h 50% 0.0 mm
15:46 4.7 °C -5.0 °C 1018.2 hPa NE 23.0 km/h 23.8 km/h 48% 0.0 mm
15:51 4.6 °C -5.0 °C 1018.2 hPa NE 27.7 km/h 28.0 km/h 48% 0.0 mm
15:56 4.5 °C -5.0 °C 1018.2 hPa NE 18.3 km/h 28.0 km/h 48% 0.0 mm
16:02 4.4 °C -6.0 °C 1016.8 hPa ENE 16.6 km/h 28.5 km/h 47% 0.0 mm
16:07 4.4 °C -6.0 °C 1016.8 hPa NNE 17.2 km/h 28.5 km/h 48% 0.0 mm
16:12 4.5 °C -5.0 °C 1016.8 hPa ENE 18.0 km/h 20.9 km/h 48% 0.0 mm
16:17 4.4 °C -6.0 °C 1016.8 hPa ENE 17.2 km/h 20.9 km/h 48% 0.0 mm
16:22 4.4 °C -6.0 °C 1016.8 hPa NE 17.7 km/h 23.3 km/h 47% 0.0 mm
16:27 4.3 °C -6.0 °C 1016.8 hPa East 25.3 km/h 25.3 km/h 45% 0.0 mm
16:32 4.2 °C -6.0 °C 1016.8 hPa NE 15.8 km/h 25.3 km/h 46% 0.0 mm
16:37 4.1 °C -6.0 °C 1016.8 hPa NE 10.5 km/h 25.3 km/h 46% 0.0 mm
16:42 4.1 °C -6.0 °C 1016.8 hPa NE 17.2 km/h 22.4 km/h 46% 0.0 mm
16:47 4.0 °C -7.0 °C 1016.8 hPa ESE 16.3 km/h 22.4 km/h 45% 0.0 mm
16:52 3.9 °C -6.0 °C 1016.8 hPa ENE 15.8 km/h 19.8 km/h 47% 0.0 mm
16:57 3.9 °C -6.0 °C 1016.8 hPa East 12.2 km/h 17.7 km/h 47% 0.0 mm
17:02 3.8 °C -6.0 °C 1016.8 hPa East 16.3 km/h 17.7 km/h 47% 0.0 mm
17:07 3.7 °C -7.0 °C 1016.8 hPa NE 10.5 km/h 22.4 km/h 46% 0.0 mm
17:12 3.6 °C -7.0 °C 1016.8 hPa ENE 17.7 km/h 22.7 km/h 46% 0.0 mm
17:17 3.5 °C -7.0 °C 1016.8 hPa ENE 15.4 km/h 22.7 km/h 45% 0.0 mm
17:22 3.4 °C -7.0 °C 1016.8 hPa ENE 10.1 km/h 19.8 km/h 45% 0.0 mm
17:27 3.3 °C -7.0 °C 1016.8 hPa NE 12.6 km/h 21.6 km/h 45% 0.0 mm
17:32 3.3 °C -7.0 °C 1016.8 hPa East 15.1 km/h 21.6 km/h 45% 0.0 mm
17:37 3.1 °C -7.0 °C 1016.8 hPa NE 10.5 km/h 20.1 km/h 45% 0.0 mm
17:42 3.0 °C -7.0 °C 1016.8 hPa East 8.7 km/h 19.8 km/h 46% 0.0 mm
17:47 2.9 °C -7.0 °C 1016.8 hPa NE 13.0 km/h 19.8 km/h 46% 0.0 mm
17:52 2.7 °C -7.0 °C 1016.8 hPa ENE 16.9 km/h 17.2 km/h 46% 0.0 mm
17:57 2.6 °C -7.0 °C 1016.8 hPa East 12.2 km/h 20.1 km/h 46% 0.0 mm
18:02 2.4 °C -7.0 °C 1016.8 hPa ENE 9.7 km/h 20.1 km/h 47% 0.0 mm
18:07 2.3 °C -7.0 °C 1016.8 hPa East 14.0 km/h 16.9 km/h 47% 0.0 mm
18:12 2.1 °C -8.0 °C 1016.8 hPa ENE 15.8 km/h 17.2 km/h 47% 0.0 mm
18:17 2.0 °C -7.0 °C 1016.8 hPa ENE 11.1 km/h 17.2 km/h 48% 0.0 mm
18:22 1.9 °C -7.0 °C 1016.8 hPa NE 12.6 km/h 16.3 km/h 49% 0.0 mm
18:28 1.8 °C -8.0 °C 1016.8 hPa ENE 11.9 km/h 16.3 km/h 49% 0.0 mm
18:33 1.7 °C -7.0 °C 1016.8 hPa NE 11.9 km/h 15.8 km/h 50% 0.0 mm
18:38 1.7 °C -7.0 °C 1016.8 hPa ENE 9.7 km/h 16.9 km/h 50% 0.0 mm
18:48 1.6 °C -7.0 °C 1018.2 hPa East 13.0 km/h 15.8 km/h 50% 0.0 mm
18:53 1.5 °C -7.0 °C 1018.2 hPa ENE 8.7 km/h 17.7 km/h 50% 0.0 mm
18:58 1.4 °C -8.0 °C 1018.2 hPa NNE 11.9 km/h 17.7 km/h 50% 0.0 mm
19:03 1.4 °C -8.0 °C 1016.8 hPa ENE 10.1 km/h 16.3 km/h 50% 0.0 mm
19:08 1.3 °C -8.0 °C 1016.8 hPa ENE 7.9 km/h 15.8 km/h 50% 0.0 mm
19:13 1.3 °C -7.0 °C 1016.8 hPa NE 11.9 km/h 16.6 km/h 51% 0.0 mm
19:18 1.2 °C -7.0 °C 1018.2 hPa ENE 11.6 km/h 16.6 km/h 51% 0.0 mm
19:23 1.1 °C -8.0 °C 1018.2 hPa ENE 7.9 km/h 13.0 km/h 51% 0.0 mm
19:28 1.1 °C -7.0 °C 1018.2 hPa ENE 6.4 km/h 12.2 km/h 52% 0.0 mm
19:33 1.0 °C -7.0 °C 1018.2 hPa ENE 6.9 km/h 11.6 km/h 52% 0.0 mm
19:38 0.9 °C -7.0 °C 1018.2 hPa ENE 7.6 km/h 11.6 km/h 53% 0.0 mm
19:43 0.7 °C -7.0 °C 1018.2 hPa ENE 5.5 km/h 11.6 km/h 53% 0.0 mm
19:48 0.6 °C -7.0 °C 1018.2 hPa ENE 8.7 km/h 8.7 km/h 54% 0.0 mm
19:53 0.6 °C -7.0 °C 1018.2 hPa ENE 7.9 km/h 11.6 km/h 54% 0.0 mm
19:58 0.6 °C -7.0 °C 1018.2 hPa ENE 10.1 km/h 12.6 km/h 55% 0.0 mm
20:03 0.5 °C -7.0 °C 1018.2 hPa ENE 9.3 km/h 12.6 km/h 55% 0.0 mm
20:08 0.6 °C -7.0 °C 1018.2 hPa ENE 9.3 km/h 14.0 km/h 55% 0.0 mm
20:13 0.6 °C -7.0 °C 1018.2 hPa ENE 10.5 km/h 14.0 km/h 55% 0.0 mm
20:18 0.6 °C -7.0 °C 1018.2 hPa ENE 9.7 km/h 14.0 km/h 56% 0.0 mm
20:23 0.6 °C -7.0 °C 1018.2 hPa ENE 10.1 km/h 14.0 km/h 56% 0.0 mm
20:28 0.6 °C -7.0 °C 1018.2 hPa East 6.4 km/h 14.0 km/h 56% 0.0 mm
20:33 0.5 °C -7.0 °C 1018.2 hPa NE 6.4 km/h 12.6 km/h 56% 0.0 mm
20:38 0.6 °C -7.0 °C 1018.2 hPa East 8.7 km/h 12.6 km/h 56% 0.0 mm
20:44 0.5 °C -7.0 °C 1018.2 hPa ENE 10.1 km/h 12.6 km/h 56% 0.0 mm
20:49 0.5 °C -7.0 °C 1018.2 hPa ENE 9.3 km/h 13.7 km/h 56% 0.0 mm
20:54 0.4 °C -7.0 °C 1018.2 hPa NE 10.1 km/h 13.7 km/h 57% 0.0 mm
20:59 0.4 °C -7.0 °C 1018.2 hPa ENE 10.5 km/h 13.7 km/h 57% 0.0 mm
21:04 0.3 °C -7.0 °C 1018.2 hPa NE 14.0 km/h 14.0 km/h 58% 0.0 mm
21:09 0.3 °C -7.0 °C 1018.2 hPa NE 12.6 km/h 14.0 km/h 58% 0.0 mm
21:14 0.3 °C -7.0 °C 1018.2 hPa NE 10.5 km/h 14.0 km/h 58% 0.0 mm
21:19 0.2 °C -7.0 °C 1018.2 hPa ENE 12.2 km/h 13.7 km/h 58% 0.0 mm
21:24 0.2 °C -7.0 °C 1018.2 hPa ENE 12.2 km/h 16.9 km/h 59% 0.0 mm
21:29 0.3 °C -6.0 °C 1018.2 hPa ENE 11.6 km/h 16.9 km/h 59% 0.0 mm
21:34 0.2 °C -6.0 °C 1018.2 hPa ENE 11.9 km/h 14.8 km/h 60% 0.0 mm
21:39 0.1 °C -6.0 °C 1018.2 hPa ENE 12.6 km/h 16.3 km/h 60% 0.0 mm
21:44 0.1 °C -6.0 °C 1018.2 hPa ENE 9.7 km/h 16.3 km/h 60% 0.0 mm
21:49 0.1 °C -6.0 °C 1018.2 hPa ENE 12.2 km/h 15.4 km/h 60% 0.0 mm
21:54 0.0 °C -7.0 °C 1018.2 hPa NE 12.6 km/h 15.4 km/h 61% 0.0 mm
21:59 0.0 °C -7.0 °C 1018.2 hPa ENE 9.7 km/h 16.6 km/h 61% 0.0 mm
22:04 0.1 °C -6.0 °C 1018.2 hPa NE 13.0 km/h 17.7 km/h 61% 0.0 mm
22:09 0.1 °C -6.0 °C 1018.2 hPa ENE 11.6 km/h 17.7 km/h 61% 0.0 mm
22:14 0.1 °C -6.0 °C 1018.2 hPa ENE 16.6 km/h 17.7 km/h 61% 0.0 mm
22:19 0.1 °C -6.0 °C 1018.2 hPa ENE 13.0 km/h 16.6 km/h 60% 0.0 mm
22:24 0.1 °C -6.0 °C 1018.2 hPa ENE 10.8 km/h 15.8 km/h 61% 0.0 mm
22:29 0.0 °C -7.0 °C 1018.2 hPa ENE 14.0 km/h 16.3 km/h 61% 0.0 mm
22:34 0.0 °C -7.0 °C 1018.2 hPa NE 12.2 km/h 16.3 km/h 61% 0.0 mm
22:39 -0.1 °C -7.0 °C 1018.2 hPa ENE 12.6 km/h 15.8 km/h 62% 0.0 mm
22:45 -0.1 °C -7.0 °C 1018.2 hPa ENE 12.2 km/h 15.8 km/h 62% 0.0 mm
22:50 -0.2 °C -7.0 °C 1018.2 hPa East 12.6 km/h 16.3 km/h 62% 0.0 mm
22:55 -0.2 °C -7.0 °C 1018.2 hPa ENE 12.2 km/h 19.1 km/h 62% 0.0 mm
23:00 -0.3 °C -7.0 °C 1016.8 hPa NNE 7.6 km/h 19.1 km/h 62% 0.0 mm
23:05 -0.3 °C -7.0 °C 1016.8 hPa NE 11.9 km/h 19.5 km/h 62% 0.0 mm
23:10 -0.2 °C -7.0 °C 1016.8 hPa NE 10.1 km/h 19.5 km/h 61% 0.0 mm
23:15 -0.3 °C -7.0 °C 1018.2 hPa ENE 9.7 km/h 18.0 km/h 62% 0.0 mm
23:20 -0.3 °C -7.0 °C 1018.2 hPa ENE 13.7 km/h 14.0 km/h 62% 0.0 mm
23:25 -0.4 °C -7.0 °C 1018.2 hPa ENE 13.0 km/h 13.7 km/h 62% 0.0 mm
23:30 -0.4 °C -7.0 °C 1018.2 hPa ENE 11.9 km/h 16.9 km/h 62% 0.0 mm
23:35 -0.4 °C -7.0 °C 1018.2 hPa ENE 13.7 km/h 16.9 km/h 62% 0.0 mm
23:40 -0.5 °C -8.0 °C 1018.2 hPa ENE 9.7 km/h 15.8 km/h 62% 0.0 mm
23:45 -0.6 °C -8.0 °C 1018.2 hPa NE 9.7 km/h 13.7 km/h 62% 0.0 mm
23:50 -0.7 °C -7.0 °C 1018.2 hPa ENE 9.3 km/h 14.0 km/h 63% 0.0 mm
23:55 -0.7 °C -7.0 °C 1018.2 hPa ENE 13.7 km/h 14.0 km/h 63% 0.0 mm
Données Historique de Météo Turbie

Mise a jour : 18/06/2018 00:15:12
Généré par Cumulus 1.9.4 (1099)